DW5868 Weather Reports


Display with metric or nautical units.
time (UTC)temp
F
wind
direction
speed
MPH
gust
MPH
rain 1hr
in
rain 24hr
in
rain mn
in
humidity
%
barometer
mb
20260506090024 36 279 0.0 0.0 0.00 0.15 0.00 83 1017.1
20260506084520 38 279 0.0 0.0 0.00 0.15 0.00 79 1017.0
20260506083017 38 279 0.0 0.0 0.00 0.15 0.00 78 1017.0
20260506081514 37 138 0.0 0.0 0.00 0.15 0.00 81 1017.1
20260506073008 36 281 0.0 0.0 0.00 0.15 0.15 82 1016.9
20260506071505 35 275 0.0 0.0 0.00 0.15 0.15 85 1016.7
20260506061504 36 277 0.0 0.0 0.00 0.15 0.15 84 1016.3
20260506050115 37 282 0.0 1.0 0.00 0.15 0.15 81 1015.5
20260506044558 37 283 0.0 1.0 0.00 0.15 0.15 83 1015.4
20260506043105 38 288 0.0 1.0 0.00 0.15 0.15 81 1015.3
20260506041557 38 230 0.0 5.0 0.00 0.15 0.15 80 1015.2
20260506040104 38 186 0.0 4.0 0.00 0.15 0.15 81 1015.0
20260506034604 38 277 0.0 1.0 0.00 0.15 0.15 80 1014.9
20260506033053 38 277 0.0 1.0 0.00 0.15 0.15 80 1014.6
20260506031553 38 277 0.0 2.0 0.00 0.15 0.15 79 1014.3
20260506030054 40 279 0.0 3.0 0.00 0.15 0.15 76 1013.9
20260506024555 41 142 0.0 2.0 0.00 0.15 0.15 73 1013.7
20260506023046 42 311 0.0 1.0 0.00 0.15 0.15 67 1013.6
20260506021558 44 78 0.0 5.0 0.00 0.15 0.15 64 1013.4
20260506020043 47 287 0.0 3.0 0.00 0.15 0.15 55 1013.2
20260506014543 47 33 0.0 5.0 0.00 0.15 0.15 54 1013.1
20260506013052 48 15 0.0 5.0 0.00 0.15 0.15 54 1013.0
20260506011545 48 265 1.0 7.0 0.00 0.15 0.15 57 1012.9
20260506010041 48 80 2.0 6.0 0.00 0.15 0.15 55 1012.8
20260506004540 48 54 2.0 5.0 0.00 0.15 0.15 56 1012.8
20260506003040 48 248 1.0 4.0 0.00 0.15 0.15 56 1012.7
20260506001539 46 202 0.0 5.0 0.00 0.15 0.15 60 1012.7
20260506000039 45 199 0.0 3.0 0.00 0.15 0.15 65 1012.7
20260505234534 45 202 1.0 7.0 0.00 0.15 0.15 66 1012.5
20260505233036 45 221 2.0 7.0 0.00 0.15 0.15 64 1012.6
20260505231535 44 78 2.0 7.0 0.00 0.15 0.15 66 1012.7
20260505230036 44 138 0.0 6.0 0.00 0.15 0.15 67 1012.5
20260505224529 44 65 1.0 6.0 0.00 0.15 0.15 66 1012.6
20260505223033 43 342 4.0 11.0 0.00 0.16 0.15 67 1012.4
20260505221527 43 284 2.0 12.0 0.00 0.16 0.15 73 1012.2
20260505220025 42 245 4.0 11.0 0.00 0.16 0.15 74 1012.2
20260505214531 42 290 2.0 6.0 0.01 0.16 0.15 74 1012.2
20260505213026 42 71 0.0 3.0 0.02 0.21 0.15 76 1012.3
20260505211526 42 83 0.0 5.0 0.02 0.21 0.15 76 1012.3
20260505210025 43 123 1.0 8.0 0.04 0.21 0.15 71 1012.2
20260505204524 43 137 1.0 7.0 0.05 0.21 0.15 76 1012.2
20260505203020 40 128 4.0 9.0 0.07 0.25 0.14 81 1012.3
20260505201518 40 125 1.0 5.0 0.08 0.24 0.13 83 1012.5
20260505200016 39 89 1.0 9.0 0.08 0.23 0.12 86 1012.6
20260505194516 39 120 1.0 5.0 0.08 0.21 0.10 88 1012.8
20260505193012 38 76 0.0 2.0 0.08 0.20 0.08 90 1013.0
20260505191512 37 28 0.0 5.0 0.06 0.18 0.06 88 1012.7
20260505190017 37 300 1.0 4.0 0.04 0.16 0.04 88 1012.5
20260505184511 37 263 0.0 1.0 0.03 0.15 0.03 88 1012.4
20260505183008 35 260 0.0 0.0 0.01 0.13 0.01 91 1012.3
20260505181503 35 24 0.0 1.0 0.00 0.12 0.00 90 1012.1
20260505180002 35 292 0.0 3.0 0.00 0.12 0.00 89 1012.0
20260505174605 35 63 0.0 3.0 0.00 0.12 0.00 89 1011.6
20260505173058 35 215 0.0 0.0 0.00 0.12 0.00 86 1011.2
20260505171557 35 215 0.0 0.0 0.00 0.12 0.00 87 1010.9
20260505170054 34 215 0.0 1.0 0.00 0.12 0.00 88 1010.9
20260505164600 34 215 0.0 4.0 0.00 0.12 0.00 90 1010.6
20260505163051 34 205 0.0 2.0 0.00 0.12 0.00 90 1010.4
20260505161550 33 295 0.0 3.0 0.00 0.12 0.00 90 1010.1
20260505153044 32 269 0.0 0.0 0.00 0.12 0.00 90 1009.0
20260505151543 32 46 0.0 0.0 0.00 0.12 0.00 90 1008.8
20260505124521 33 160 5.0 10.0 0.00 0.12 0.00 83 1007.8
20260505123012 33 176 4.0 10.0 0.00 0.12 0.00 84 1007.7
20260505121512 32 263 4.0 10.0 0.00 0.12 0.00 85 1007.7
20260505120022 32 256 3.0 8.0 0.00 0.12 0.00 87 1007.8
20260505114508 32 295 1.0 8.0 0.00 0.12 0.00 86 1007.9
20260505113007 33 275 1.0 7.0 0.00 0.12 0.00 84 1007.7
20260505111514 33 138 3.0 11.0 0.00 0.12 0.00 84 1007.9
20260505101508 32 257 0.0 3.0 0.00 0.12 0.00 92 1007.7
20260505100002 32 76 0.0 0.0 0.00 0.12 0.00 92 1008.0
20260505094601 32 76 0.0 1.0 0.00 0.12 0.00 92 1008.2
20260505093102 32 75 0.0 3.0 0.00 0.12 0.00 91 1008.2
20260505091607 33 38 0.0 5.0 0.00 0.12 0.00 90 1008.4